Flag Weather past 2 weeks in Wismar, Mecklenburg-Western Pomerania, Germany

Now
34 °F

Overcast.


Feels Like: 28 °F
Forecast: 27 / 33 °F
Wind: 7 mph from Southeast

Location: Schwerin

Current Time: Nov 28, 2014 at 1:30:51 PM

Latest Report: Nov 28, 2014 at 1:00 PM


Visibility: 6 mi

Pressure: 30.14 "Hg

Humidity: 73%

Dew point: 26 °F

Location of WismarLocation

Historic Weather in Wismar — Graph

°F

Wismar temperature yesterday

Maximum temperature yesterday: 40 °F (at 2:00 PM)
Minimum temperature yesterday: 35 °F (at 8:00 AM)
Average temperature yesterday: 37 °F

Past Weeks' High & Low Weather Summary

 TemperatureHumidityPressure
High53 °F (Nov 14, 2:00 PM)100% (Nov 13, 11:00 PM)30.38 "Hg (Nov 13, 11:00 PM)
Low32 °F (Nov 28, 10:00 AM)72% (Nov 27, 2:00 PM)29.59 "Hg (Nov 16, 3:00 PM)
Average43 °F90%30.07 "Hg
* Reported Nov 13 12:00 Noon — Nov 28 12:00 Noon, Wismar, Weather by CustomWeather, © 2014

Note: Actual official high and low records may vary slightly from our data, if they occured in-between our weather recording intervals... More about our weather records

Advertising

Wismar weather history for previous 24 hours

 ConditionsComfort  
Time TempWeatherWind HumidityBarometerVisibility
12:00 PM
Nov 28
33 °FOvercast.7 mph76%30.16 "Hg4 mi
11:00 AM33 °FOvercast.8 mph78%30.16 "Hg4 mi
10:00 AM32 °FFog.6 mph83%30.15 "Hg3 mi
9:00 AM33 °FFog.5 mph86%30.14 "Hg3 mi
8:00 AM33 °FFog.6 mph83%30.11 "Hg3 mi
7:00 AM35 °FFog.8 mph81%30.10 "Hg4 mi
6:00 AM35 °FPassing clouds.8 mph80%30.08 "Hg4 mi
5:00 AM36 °FFog.8 mph80%30.07 "Hg4 mi
3:00 AM35 °FFog.8 mph82%30.05 "Hg4 mi
2:00 AM35 °FFog.7 mph83%30.06 "Hg4 mi
1:00 AM36 °FFog.7 mph82%30.05 "Hg4 mi
12:00 AM36 °FFog.7 mph82%30.05 "Hg3 mi
11:00 PM
Nov 27
37 °FOvercast.6 mph79%30.05 "Hg4 mi
9:00 PM37 °FOvercast.7 mph79%30.03 "Hg3 mi
8:00 PM36 °FFog.5 mph84%30.02 "Hg3 mi
7:00 PM36 °FFog.5 mph84%30.01 "Hg3 mi
6:00 PM36 °FFog.5 mph85%30.00 "Hg3 mi
5:00 PM37 °FFog.5 mph83%30.00 "Hg3 mi
4:00 PM39 °FPassing clouds.5 mph78%29.99 "Hg4 mi
3:00 PM40 °FPartly sunny.6 mph72%29.99 "Hg5 mi
2:00 PM40 °FPartly sunny.7 mph72%29.99 "Hg4 mi
1:00 PM40 °FPassing clouds.6 mph73%30.01 "Hg4 mi
Weather by CustomWeather, © 2014

See weather overviewHow to use our weather pages